Starlink 33596

operational
NORAD ID: 62758 Int'l Des: 2025-015 Owner: SPXS Country: US Constellation: starlink
LEOCIRCULAR

Starlink 33596について

説明を読み込み中...

リアルタイム位置

3D地球を読み込み中...

次回通過

高度履歴

Altitude vs Time

uPlot chart will show altitude changes over time

軌道要素

1 62758U 25015A 25352.28404811 .00014535 00000-0 50189-3 0 9990
2 62758 53.1606 340.8544 0001448 124.2485 235.8653 15.30200789 51948
Epoch: Dec 18, 2025 • Age: 11 hours

現在のステータス

高度 480.9 km
速度 7.63 km/s
衛星直下点 53.23°N, 72.47°E
打ち上げ日 Jan 21, 2025
運用期間 0.9 years
タイプ internet

技術仕様

分類 Payload
質量 575.00 kg
乾燥質量 530.00 kg
総質量 575.00 kg
長さ 0.30 m
直径 4.10 m
スパン 29.00 m
形状 Box + pan
製造者 SPXS
バスタイプ Starlink V2MO
フェーズステータス In Orbit
所有者/国 SPXS/US

大規模コンステレーション

Loading constellations...